スペースウォッチ-ヒル彗星

P/2009 SK280 ( Spacewatch-Hill )

English version
Home page
Updated on January 22, 2012

---------------------------------------------------------------------

・ プロフィール

発見日 2009年9月25日、10月15日
発見光度 20.1等、19.8等
発見者 Spacewatch, R. E. Hill (Mount Lemmon Survey)

・ 軌道要素

Epoch 2009 May 9.0 TT = JDT 2454960.5
T 2009 May 24.66431 TT                                  MPC
q   4.1992123            (2000.0)            P               Q
n   0.09439947     Peri.  328.31143     +0.98328512     -0.06082265
a   4.7770122      Node    36.41459     +0.15256020     +0.78968543
e   0.1209543      Incl.   16.80370     -0.09937690     +0.61048959
P  10.4
From 85 observations 2009 Sept. 17-2011 Dec. 23, mean residual 0".5.

・ 光度変化

        m1 = 10.5 + 5 logΔ + 10.0 log r

---------------------------------------------------------------------

軌道要素はM.P.E.C. 2012-B23に掲載されたものです。
光度グラフはComet for Windowsで作成したものです。

---------------------------------------------------------------------

Copyright(C) Seiichi Yoshida (comet@aerith.net). All rights reserved.